WBANNO,USDM_WEEK,LONGITUDE,LATITUDE,SMVWC_5_CM_MEAN,SMANOM_5_CM_MEAN,SMPERC_5_CM_30COUNTS,SMPERC_5_CM_70COUNTS,SMVWC_10_CM_MEAN,SMANOM_10_CM_MEAN,SMPERC_10_CM_30COUNTS,SMPERC_10_CM_70COUNTS,SMVWC_20_CM_MEAN,SMANOM_20_CM_MEAN,SMPERC_20_CM_30COUNTS,SMPERC_20_CM_70COUNTS,SMVWC_50_CM_MEAN,SMANOM_50_CM_MEAN,SMPERC_50_CM_30COUNTS,SMPERC_50_CM_70COUNTS,SMVWC_100_CM_MEAN,SMANOM_100_CM_MEAN,SMPERC_100_CM_30COUNTS,SMPERC_100_CM_70COUNTS,SMVWC_TOP_CM_MEAN,SMANOM_TOP_CM_MEAN,SMPERC_TOP_CM_30COUNTS,SMPERC_TOP_CM_70COUNTS,SMVWC_COLUMN_CM_MEAN,SMANOM_COLUMN_CM_MEAN,SMPERC_COLUMN_CM_30COUNTS,SMPERC_COLUMN_CM_70COUNTS
04125,20110809,-119.65,44.56,,,,,,,,,,,,,,,,,,,,,,,,,,,,
04125,20110810,-119.65,44.56,,,,,,,,,,,,,,,,,,,,,,,,,,,,
04125,20110811,-119.65,44.56,,,,,,,,,,,,,,,,,,,,,,,,,,,,
04125,20110812,-119.65,44.56,,,,,,,,,,,,,,,,,,,,,,,,,,,,
04125,20110813,-119.65,44.56,,,,,,,,,,,,,,,,,,,,,,,,,,,,
04125,20110814,-119.65,44.56,,,,,,,,,,,,,,,,,,,,,,,,,,,,
04125,20110815,-119.65,44.56,0.03,-0.87,1,0,0.065,-0.17,0.006,0,0.089,-1.05,1,0,0.073,-3.15,1,0,0.064,-2.81,1,0,0.048,-0.43,1,0,0.064,-1.32,1,0
04125,20110816,-119.65,44.56,0.03,-0.91,1,0,0.065,-0.17,0.006,0,0.09,-1,1,0,0.074,-3.03,1,0,0.065,-2.72,1,0,0.047,-0.44,1,0,0.065,-1.3,1,0
04125,20110817,-119.65,44.56,0.029,-0.94,1,0,0.064,-0.17,0.012,0,0.091,-0.93,1,0,0.076,-2.88,1,0,0.066,-2.61,1,0,0.047,-0.45,1,0,0.065,-1.27,1,0
04125,20110818,-119.65,44.56,0.029,-0.97,1,0,0.064,-0.16,0.006,0,0.091,-0.88,1,0,0.076,-2.77,1,0,0.066,-2.52,1,0,0.046,-0.45,1,0,0.065,-1.24,1,0
04125,20110819,-119.65,44.56,0.029,-0.98,1,0,0.064,-0.16,0.006,0,0.092,-0.85,1,0,0.077,-2.68,1,0,0.067,-2.46,1,0,0.046,-0.46,1,0,0.066,-1.23,1,0
04125,20110820,-119.65,44.56,0.028,-1.01,1,0,0.063,-0.15,0.006,0,0.092,-0.82,1,0,0.078,-2.6,1,0,0.067,-2.41,1,0,0.046,-0.46,1,0,0.066,-1.22,1,0
04125,20110821,-119.65,44.56,0.028,-1.02,1,0,0.063,-0.15,0.006,0,0.092,-0.81,1,0,0.078,-2.54,1,0,0.067,-2.37,1,0,0.045,-0.46,1,0,0.066,-1.22,1,0
04125,20110822,-119.65,44.56,0.028,-1,1,0,0.063,-0.14,0.006,0,0.092,-0.8,1,0,0.079,-2.48,1,0,0.067,-2.32,1,0,0.045,-0.46,1,0,0.066,-1.2,1,0
04125,20110823,-119.65,44.56,0.028,-0.98,1,0,0.063,-0.14,0.006,0,0.093,-0.79,1,0,0.079,-2.42,1,0,0.068,-2.29,1,0,0.045,-0.46,1,0,0.066,-1.19,1,0
04125,20110824,-119.65,44.56,0.028,-0.96,1,0,0.063,-0.13,0,0,0.093,-0.77,1,0,0.08,-2.37,1,0,0.068,-2.25,1,0,0.045,-0.45,1,0,0.066,-1.17,1,0
04125,20110825,-119.65,44.56,0.028,-0.88,0.952,0.006,0.062,-0.13,0,0,0.093,-0.76,1,0,0.08,-2.31,1,0,0.068,-2.21,1,0,0.045,-0.43,0.952,0,0.066,-1.14,1,0
04125,20110826,-119.65,44.56,0.031,-0.65,0.81,0.131,0.062,-0.13,0,0,0.093,-0.75,1,0,0.08,-2.26,1,0,0.068,-2.17,1,0,0.047,-0.38,0.81,0,0.067,-1.09,1,0
04125,20110827,-119.65,44.56,0.034,-0.41,0.667,0.274,0.062,-0.12,0,0,0.093,-0.74,1,0,0.08,-2.22,1,0,0.068,-2.13,1,0,0.048,-0.31,0.667,0,0.067,-1.04,1,0
04125,20110828,-119.65,44.56,0.037,-0.18,0.524,0.411,0.062,-0.11,0,0,0.093,-0.73,1,0,0.08,-2.18,1,0,0.068,-2.1,1,0,0.049,-0.24,0.524,0,0.068,-0.99,1,0
04125,20110829,-119.65,44.56,0.039,0,0.381,0.476,0.062,-0.1,0,0,0.093,-0.71,1,0,0.08,-2.14,1,0,0.068,-2.07,1,0,0.051,-0.18,0.381,0,0.069,-0.95,1,0
04125,20110830,-119.65,44.56,0.041,0.17,0.238,0.476,0.062,-0.09,0,0,0.093,-0.7,1,0,0.08,-2.11,1,0,0.068,-2.04,1,0,0.052,-0.13,0.238,0,0.069,-0.91,1,0
04125,20110831,-119.65,44.56,0.043,0.3,0.095,0.476,0.063,-0.08,0,0,0.092,-0.69,1,0,0.08,-2.09,1,0,0.068,-2.01,1,0,0.053,-0.08,0.095,0,0.069,-0.89,1,0
04125,20110901,-119.65,44.56,0.043,0.34,0.006,0.47,0.063,-0.07,0,0,0.092,-0.69,1,0,0.08,-2.07,1,0,0.067,-1.99,1,0,0.053,-0.06,0.006,0,0.069,-0.87,1,0
04125,20110902,-119.65,44.56,0.041,0.23,0.036,0.345,0.063,-0.05,0,0,0.092,-0.69,1,0,0.08,-2.06,1,0,0.067,-1.98,1,0,0.052,-0.09,0.024,0,0.069,-0.87,1,0
04125,20110903,-119.65,44.56,0.039,0.09,0.089,0.202,0.063,-0.04,0,0,0.092,-0.68,1,0,0.08,-2.04,1,0,0.067,-1.97,1,0,0.051,-0.12,0.042,0,0.068,-0.88,1,0
04125,20110904,-119.65,44.56,0.036,-0.04,0.179,0.065,0.063,-0.03,0,0,0.091,-0.67,0.982,0,0.08,-2.03,1,0,0.066,-1.95,1,0,0.05,-0.15,0.06,0,0.067,-0.88,1,0
04125,20110905,-119.65,44.56,0.034,-0.15,0.286,0,0.063,-0.03,0,0,0.091,-0.65,0.958,0,0.079,-2.01,1,0,0.066,-1.93,1,0,0.049,-0.18,0.071,0,0.067,-0.88,1,0
04125,20110906,-119.65,44.56,0.033,-0.23,0.387,0,0.063,-0.02,0,0,0.091,-0.62,0.905,0,0.079,-1.98,1,0,0.066,-1.91,1,0,0.048,-0.2,0.071,0,0.066,-0.87,1,0
04125,20110907,-119.65,44.56,0.032,-0.29,0.518,0,0.063,-0.01,0,0,0.091,-0.59,0.81,0,0.079,-1.92,1,0,0.066,-1.87,1,0,0.048,-0.21,0.071,0,0.066,-0.85,1,0
04125,20110908,-119.65,44.56,0.031,-0.34,0.649,0,0.064,0,0,0,0.091,-0.55,0.702,0,0.079,-1.87,1,0,0.066,-1.81,1,0,0.047,-0.22,0.071,0,0.066,-0.83,1,0
04125,20110909,-119.65,44.56,0.03,-0.38,0.762,0,0.064,0,0,0,0.092,-0.51,0.595,0,0.079,-1.81,1,0,0.066,-1.76,1,0,0.047,-0.22,0.077,0,0.066,-0.81,1,0
04125,20110910,-119.65,44.56,0.029,-0.42,0.851,0,0.064,0,0,0,0.092,-0.47,0.482,0,0.08,-1.76,1,0,0.066,-1.7,1,0,0.046,-0.23,0.089,0,0.066,-0.8,1,0
04125,20110911,-119.65,44.56,0.029,-0.45,0.905,0,0.063,0,0,0,0.092,-0.44,0.381,0,0.08,-1.69,1,0,0.066,-1.64,1,0,0.046,-0.24,0.107,0,0.066,-0.79,1,0
04125,20110912,-119.65,44.56,0.028,-0.47,0.94,0,0.063,0,0,0,0.092,-0.41,0.268,0,0.08,-1.62,1,0,0.067,-1.57,1,0,0.046,-0.24,0.095,0,0.066,-0.77,1,0
04125,20110913,-119.65,44.56,0.028,-0.5,0.982,0,0.063,0,0,0,0.092,-0.39,0.179,0,0.08,-1.57,1,0,0.067,-1.51,1,0,0.045,-0.24,0.107,0,0.066,-0.76,1,0
04125,20110914,-119.65,44.56,0.027,-0.53,0.994,0,0.063,-0.01,0,0,0.092,-0.37,0.131,0,0.08,-1.52,1,0,0.067,-1.47,1,0,0.045,-0.25,0.125,0,0.066,-0.76,1,0
04125,20110915,-119.65,44.56,0.027,-0.54,1,0,0.062,-0.01,0,0,0.092,-0.35,0.101,0,0.08,-1.49,1,0,0.067,-1.44,1,0,0.045,-0.25,0.125,0,0.066,-0.75,1,0
04125,20110916,-119.65,44.56,0.027,-0.55,1,0,0.062,-0.02,0,0,0.093,-0.34,0.065,0,0.08,-1.45,1,0,0.067,-1.41,1,0,0.044,-0.24,0.113,0,0.066,-0.74,1,0
04125,20110917,-119.65,44.56,0.026,-0.55,1,0,0.061,-0.03,0,0,0.092,-0.32,0.036,0,0.08,-1.42,1,0,0.067,-1.39,1,0,0.044,-0.24,0.155,0,0.066,-0.73,1,0
04125,20110918,-119.65,44.56,0.026,-0.56,1,0,0.061,-0.05,0,0,0.092,-0.32,0.018,0,0.08,-1.41,1,0,0.067,-1.39,1,0,0.043,-0.25,0.25,0,0.065,-0.73,1,0
04125,20110919,-119.65,44.56,0.026,-0.55,1,0,0.06,-0.06,0,0,0.092,-0.31,0.018,0,0.08,-1.39,1,0,0.066,-1.41,1,0,0.043,-0.25,0.274,0,0.065,-0.73,1,0
04125,20110920,-119.65,44.56,0.025,-0.53,1,0,0.059,-0.07,0,0,0.092,-0.31,0.018,0,0.08,-1.37,1,0,0.066,-1.43,1,0,0.042,-0.26,0.268,0,0.064,-0.73,1,0
04125,20110921,-119.65,44.56,0.025,-0.51,1,0,0.058,-0.08,0,0,0.091,-0.31,0.018,0,0.079,-1.36,1,0,0.065,-1.45,1,0,0.042,-0.26,0.28,0,0.064,-0.74,1,0
04125,20110922,-119.65,44.56,0.025,-0.49,1,0,0.058,-0.1,0,0,0.091,-0.31,0.012,0,0.079,-1.34,1,0,0.064,-1.48,1,0,0.041,-0.27,0.292,0,0.063,-0.74,1,0
04125,20110923,-119.65,44.56,0.025,-0.47,1,0,0.057,-0.11,0,0,0.09,-0.31,0.012,0,0.079,-1.33,1,0,0.064,-1.49,1,0,0.041,-0.27,0.286,0,0.063,-0.74,1,0
04125,20110924,-119.65,44.56,0.025,-0.45,1,0,0.057,-0.12,0,0,0.09,-0.31,0.012,0,0.079,-1.3,1,0,0.063,-1.5,1,0,0.041,-0.26,0.214,0,0.063,-0.73,1,0
04125,20110925,-119.65,44.56,0.025,-0.42,0.994,0,0.057,-0.12,0,0,0.09,-0.3,0.006,0,0.079,-1.26,1,0,0.063,-1.48,1,0,0.041,-0.24,0.083,0,0.063,-0.71,1,0
04125,20110926,-119.65,44.56,0.025,-0.41,0.988,0,0.057,-0.13,0,0,0.09,-0.29,0,0,0.079,-1.24,1,0,0.063,-1.45,1,0,0.041,-0.24,0.119,0,0.063,-0.7,1,0
04125,20110927,-119.65,44.56,0.024,-0.41,0.982,0,0.056,-0.15,0,0,0.09,-0.29,0,0,0.078,-1.22,1,0,0.063,-1.47,1,0,0.04,-0.24,0.143,0,0.062,-0.69,1,0
04125,20110928,-119.65,44.56,0.024,-0.4,0.976,0,0.056,-0.16,0,0,0.09,-0.29,0,0,0.078,-1.21,1,0,0.062,-1.48,1,0,0.04,-0.24,0.131,0,0.062,-0.68,1,0
04125,20110929,-119.65,44.56,0.024,-0.39,0.976,0,0.056,-0.17,0,0,0.09,-0.29,0,0,0.078,-1.2,1,0,0.062,-1.51,1,0,0.04,-0.25,0.155,0,0.062,-0.67,1,0
04125,20110930,-119.65,44.56,0.024,-0.38,0.97,0,0.055,-0.19,0,0,0.089,-0.29,0,0,0.078,-1.19,1,0,0.061,-1.54,1,0,0.04,-0.25,0.244,0,0.061,-0.66,1,0
04125,20111001,-119.65,44.56,0.024,-0.36,0.899,0,0.055,-0.21,0,0,0.089,-0.3,0,0,0.078,-1.19,1,0,0.06,-1.58,1,0,0.039,-0.26,0.286,0,0.061,-0.66,1,0
04125,20111002,-119.65,44.56,0.024,-0.35,0.851,0,0.054,-0.23,0,0,0.089,-0.3,0,0,0.077,-1.2,1,0,0.06,-1.61,1,0,0.039,-0.27,0.327,0,0.061,-0.66,1,0
04125,20111003,-119.65,44.56,0.024,-0.33,0.839,0,0.054,-0.24,0,0,0.089,-0.31,0,0,0.077,-1.21,1,0,0.059,-1.65,1,0,0.039,-0.28,0.411,0,0.061,-0.66,1,0
04125,20111004,-119.65,44.56,0.024,-0.32,0.833,0,0.054,-0.26,0,0,0.089,-0.31,0,0,0.077,-1.21,1,0,0.059,-1.65,1,0,0.039,-0.29,0.524,0,0.06,-0.66,1,0
04125,20111005,-119.65,44.56,0.024,-0.32,0.839,0,0.053,-0.27,0,0,0.088,-0.32,0,0,0.077,-1.23,1,0,0.058,-1.65,1,0,0.038,-0.31,0.649,0,0.06,-0.66,1,0
04125,20111006,-119.65,44.56,0.024,-0.32,0.81,0,0.053,-0.29,0,0,0.088,-0.33,0.012,0,0.076,-1.25,1,0,0.058,-1.66,1,0,0.038,-0.33,0.75,0,0.06,-0.68,1,0
04125,20111007,-119.65,44.56,0.025,-0.3,0.69,0,0.052,-0.31,0,0,0.087,-0.36,0.065,0,0.076,-1.28,1,0,0.056,-1.69,1,0,0.039,-0.33,0.78,0,0.059,-0.68,1,0
04125,20111008,-119.65,44.56,0.027,-0.29,0.661,0,0.051,-0.32,0,0,0.086,-0.38,0.125,0,0.075,-1.31,1,0,0.055,-1.72,1,0,0.039,-0.33,0.762,0,0.059,-0.69,1,0
04125,20111009,-119.65,44.56,0.03,-0.28,0.583,0,0.051,-0.34,0,0,0.086,-0.4,0.149,0,0.074,-1.34,1,0,0.053,-1.75,1,0,0.04,-0.32,0.744,0,0.059,-0.7,1,0
04125,20111010,-119.65,44.56,0.033,-0.27,0.47,0,0.05,-0.35,0,0,0.085,-0.42,0.167,0,0.074,-1.35,1,0,0.051,-1.76,1,0,0.041,-0.31,0.69,0,0.059,-0.71,1,0
04125,20111011,-119.65,44.56,0.036,-0.24,0.339,0,0.05,-0.35,0,0,0.084,-0.43,0.167,0,0.073,-1.38,1,0,0.05,-1.77,1,0,0.043,-0.3,0.571,0,0.059,-0.71,1,0
04125,20111012,-119.65,44.56,0.041,-0.2,0.196,0,0.052,-0.31,0,0,0.083,-0.44,0.167,0,0.072,-1.38,1,0,0.048,-1.78,1,0,0.046,-0.25,0.429,0,0.059,-0.68,1,0
04125,20111013,-119.65,44.56,0.046,-0.15,0.083,0,0.054,-0.26,0,0,0.082,-0.44,0.167,0,0.072,-1.38,1,0,0.047,-1.77,1,0,0.05,-0.19,0.286,0,0.06,-0.65,1,0
04125,20111014,-119.65,44.56,0.049,-0.13,0.065,0,0.057,-0.2,0,0,0.082,-0.44,0.131,0,0.071,-1.37,1,0,0.046,-1.74,1,0,0.053,-0.15,0.161,0,0.061,-0.62,0.994,0
04125,20111015,-119.65,44.56,0.053,-0.1,0.024,0,0.059,-0.13,0,0,0.082,-0.44,0.083,0,0.071,-1.36,1,0,0.045,-1.7,1,0,0.056,-0.11,0.137,0,0.062,-0.58,0.952,0
04125,20111016,-119.65,44.56,0.056,-0.07,0.012,0,0.062,-0.08,0,0,0.082,-0.44,0.06,0,0.071,-1.36,1,0,0.045,-1.66,1,0,0.059,-0.07,0.113,0,0.063,-0.55,0.863,0
04125,20111017,-119.65,44.56,0.058,-0.05,0,0,0.065,-0.02,0,0,0.082,-0.44,0.042,0,0.071,-1.37,1,0,0.045,-1.64,1,0,0.062,-0.03,0.024,0,0.064,-0.51,0.792,0
04125,20111018,-119.65,44.56,0.06,-0.05,0,0,0.067,0.02,0,0,0.082,-0.45,0.048,0,0.071,-1.36,1,0,0.045,-1.64,1,0,0.063,-0.01,0,0,0.065,-0.5,0.792,0
04125,20111019,-119.65,44.56,0.061,-0.06,0,0,0.067,0.03,0,0,0.081,-0.46,0.048,0,0.07,-1.35,1,0,0.045,-1.63,1,0,0.064,-0.01,0,0,0.065,-0.5,0.792,0
04125,20111020,-119.65,44.56,0.061,-0.08,0,0,0.067,0.02,0,0,0.081,-0.46,0.036,0,0.07,-1.34,1,0,0.045,-1.62,1,0,0.064,-0.02,0,0,0.065,-0.5,0.792,0
04125,20111021,-119.65,44.56,0.061,-0.11,0,0,0.067,0.01,0,0,0.081,-0.46,0.03,0,0.07,-1.33,1,0,0.044,-1.61,1,0,0.064,-0.04,0,0,0.065,-0.51,0.798,0
04125,20111022,-119.65,44.56,0.061,-0.15,0.054,0,0.066,0,0,0,0.081,-0.47,0.018,0,0.07,-1.32,1,0,0.044,-1.59,1,0,0.064,-0.06,0,0,0.065,-0.53,0.839,0
04125,20111023,-119.65,44.56,0.06,-0.19,0.149,0,0.066,-0.02,0,0,0.081,-0.47,0.018,0,0.07,-1.31,1,0,0.044,-1.59,1,0,0.063,-0.08,0,0,0.064,-0.56,0.929,0
04125,20111024,-119.65,44.56,0.06,-0.23,0.292,0,0.066,-0.04,0,0,0.081,-0.48,0.018,0,0.071,-1.29,1,0,0.044,-1.59,1,0,0.063,-0.1,0,0,0.064,-0.6,1,0
04125,20111025,-119.65,44.56,0.06,-0.27,0.435,0,0.066,-0.07,0,0,0.081,-0.47,0.012,0,0.071,-1.26,1,0,0.044,-1.57,1,0,0.063,-0.12,0.006,0,0.064,-0.63,1,0
04125,20111026,-119.65,44.56,0.058,-0.33,0.577,0,0.065,-0.1,0,0,0.081,-0.47,0.012,0,0.071,-1.25,1,0,0.044,-1.57,1,0,0.062,-0.16,0.113,0,0.064,-0.67,1,0
04125,20111027,-119.65,44.56,0.057,-0.38,0.72,0,0.065,-0.14,0.03,0,0.081,-0.48,0.012,0,0.071,-1.24,1,0,0.043,-1.59,1,0,0.061,-0.22,0.256,0,0.063,-0.72,1,0
04125,20111028,-119.65,44.56,0.055,-0.44,0.863,0,0.064,-0.17,0.06,0,0.081,-0.49,0,0,0.07,-1.24,1,0,0.042,-1.6,1,0,0.06,-0.28,0.399,0,0.063,-0.77,1,0
04125,20111029,-119.65,44.56,0.054,-0.5,0.952,0,0.064,-0.21,0.095,0,0.081,-0.49,0,0,0.07,-1.24,1,0,0.042,-1.62,1,0,0.059,-0.35,0.542,0,0.062,-0.81,1,0
04125,20111030,-119.65,44.56,0.052,-0.55,1,0,0.063,-0.24,0.101,0,0.08,-0.49,0,0,0.07,-1.23,1,0,0.041,-1.63,1,0,0.058,-0.41,0.685,0,0.061,-0.84,1,0
04125,20111031,-119.65,44.56,0.051,-0.61,1,0,0.063,-0.27,0.113,0,0.08,-0.5,0,0,0.07,-1.23,1,0,0.041,-1.64,1,0,0.057,-0.48,0.827,0,0.061,-0.86,1,0
04125,20111101,-119.65,44.56,0.049,-0.67,1,0,0.063,-0.29,0.119,0,0.08,-0.5,0,0,0.07,-1.22,1,0,0.04,-1.65,1,0,0.056,-0.54,0.964,0,0.06,-0.88,1,0
04125,20111102,-119.65,44.56,0.048,-0.72,1,0,0.062,-0.3,0.143,0,0.08,-0.5,0,0,0.07,-1.23,1,0,0.04,-1.65,1,0,0.055,-0.58,1,0,0.06,-0.89,1,0
04125,20111103,-119.65,44.56,0.047,-0.78,1,0,0.062,-0.32,0.173,0,0.08,-0.5,0,0,0.07,-1.23,1,0,0.04,-1.65,1,0,0.054,-0.61,1,0,0.06,-0.91,1,0
04125,20111104,-119.65,44.56,0.046,-0.83,1,0,0.062,-0.33,0.196,0,0.08,-0.5,0.03,0,0.07,-1.23,1,0,0.04,-1.63,1,0,0.054,-0.64,1,0,0.059,-0.93,1,0
04125,20111105,-119.65,44.56,0.046,-0.85,1,0,0.062,-0.35,0.244,0,0.08,-0.5,0.06,0,0.07,-1.23,1,0,0.041,-1.58,1,0,0.054,-0.66,1,0,0.059,-0.95,1,0
04125,20111106,-119.65,44.56,0.046,-0.87,1,0,0.061,-0.37,0.369,0,0.079,-0.52,0.179,0,0.069,-1.25,1,0,0.042,-1.5,1,0,0.053,-0.67,1,0,0.059,-0.97,1,0
04125,20111107,-119.65,44.56,0.046,-0.87,1,0,0.061,-0.39,0.482,0,0.079,-0.54,0.321,0,0.069,-1.27,1,0,0.044,-1.43,1,0,0.053,-0.68,1,0,0.06,-0.98,1,0
04125,20111108,-119.65,44.56,0.047,-0.86,1,0,0.06,-0.42,0.607,0,0.078,-0.55,0.429,0,0.068,-1.29,1,0,0.045,-1.35,1,0,0.054,-0.68,1,0,0.06,-0.99,1,0
04125,20111109,-119.65,44.56,0.048,-0.83,1,0,0.06,-0.43,0.72,0,0.078,-0.56,0.512,0,0.068,-1.32,1,0,0.047,-1.27,1,0,0.054,-0.67,1,0,0.06,-0.99,1,0
04125,20111110,-119.65,44.56,0.049,-0.79,1,0,0.061,-0.45,0.798,0,0.078,-0.57,0.601,0,0.068,-1.34,1,0,0.049,-1.18,1,0,0.055,-0.65,1,0,0.061,-0.97,1,0
04125,20111111,-119.65,44.56,0.051,-0.76,1,0,0.061,-0.46,0.887,0,0.077,-0.56,0.601,0,0.068,-1.35,1,0,0.051,-1.1,1,0,0.056,-0.63,1,0,0.061,-0.94,1,0
04125,20111112,-119.65,44.56,0.052,-0.74,1,0,0.061,-0.47,0.946,0,0.077,-0.56,0.589,0,0.067,-1.37,1,0,0.051,-1.05,1,0,0.056,-0.61,1,0,0.062,-0.91,1,0
04125,20111113,-119.65,44.56,0.052,-0.73,1,0,0.062,-0.48,0.958,0,0.077,-0.54,0.488,0,0.067,-1.37,1,0,0.051,-1.04,1,0,0.057,-0.6,1,0,0.062,-0.88,1,0
04125,20111114,-119.65,44.56,0.052,-0.72,1,0,0.062,-0.49,0.976,0,0.077,-0.52,0.345,0,0.067,-1.37,1,0,0.052,-1.01,1,0,0.057,-0.59,1,0,0.062,-0.85,1,0
04125,20111115,-119.65,44.56,0.053,-0.73,1,0,0.062,-0.5,0.988,0,0.077,-0.5,0.238,0,0.067,-1.36,1,0,0.052,-0.99,1,0,0.057,-0.59,1,0,0.062,-0.82,1,0
04125,20111116,-119.65,44.56,0.053,-0.74,1,0,0.062,-0.51,0.994,0,0.077,-0.49,0.155,0,0.068,-1.33,1,0,0.052,-0.97,1,0,0.057,-0.59,1,0,0.062,-0.8,1,0
04125,20111117,-119.65,44.56,0.053,-0.77,1,0,0.062,-0.53,1,0,0.077,-0.48,0.095,0,0.068,-1.28,1,0,0.052,-0.95,1,0,0.057,-0.59,1,0,0.062,-0.79,1,0
04125,20111118,-119.65,44.56,0.053,-0.79,1,0,0.062,-0.54,1,0,0.077,-0.47,0.065,0,0.068,-1.23,1,0,0.052,-0.93,1,0,0.057,-0.59,1,0,0.062,-0.78,1,0
04125,20111119,-119.65,44.56,0.053,-0.81,1,0,0.062,-0.55,1,0,0.077,-0.46,0.048,0,0.068,-1.18,1,0,0.052,-0.91,1,0,0.057,-0.58,1,0,0.062,-0.78,1,0
04125,20111120,-119.65,44.56,0.052,-0.84,1,0,0.061,-0.56,1,0,0.077,-0.45,0.06,0,0.067,-1.13,1,0,0.052,-0.9,1,0,0.057,-0.58,1,0,0.062,-0.79,1,0
04125,20111121,-119.65,44.56,0.051,-0.86,1,0,0.06,-0.57,1,0,0.077,-0.46,0.137,0,0.067,-1.1,1,0,0.051,-0.89,1,0,0.056,-0.58,1,0,0.061,-0.8,1,0
04125,20111122,-119.65,44.56,0.051,-0.87,1,0,0.06,-0.57,1,0,0.076,-0.46,0.232,0,0.067,-1.06,1,0,0.051,-0.89,1,0,0.056,-0.57,1,0,0.061,-0.8,1,0
04125,20111123,-119.65,44.56,0.052,-0.87,1,0,0.06,-0.55,1,0,0.076,-0.46,0.232,0,0.067,-1.03,1,0,0.051,-0.89,1,0,0.056,-0.55,1,0,0.061,-0.78,1,0
04125,20111124,-119.65,44.56,0.053,-0.85,1,0,0.06,-0.52,1,0,0.076,-0.45,0.202,0,0.067,-1.01,1,0,0.051,-0.88,1,0,0.056,-0.53,1,0,0.061,-0.75,1,0
04125,20111125,-119.65,44.56,0.053,-0.84,1,0,0.06,-0.5,0.994,0,0.076,-0.43,0.202,0,0.067,-0.99,1,0,0.051,-0.87,1,0,0.057,-0.52,1,0,0.061,-0.72,1,0
04125,20111126,-119.65,44.56,0.053,-0.82,1,0,0.06,-0.47,0.982,0,0.076,-0.42,0.202,0,0.067,-0.97,1,0,0.051,-0.86,1,0,0.057,-0.51,1,0,0.062,-0.69,1,0
04125,20111127,-119.65,44.56,0.054,-0.8,1,0,0.061,-0.44,0.94,0,0.076,-0.4,0.173,0,0.067,-0.95,1,0,0.051,-0.85,1,0,0.057,-0.5,1,0,0.062,-0.65,1,0
04125,20111128,-119.65,44.56,0.055,-0.76,1,0,0.061,-0.4,0.851,0,0.076,-0.38,0.095,0,0.067,-0.92,1,0,0.052,-0.84,1,0,0.058,-0.49,1,0,0.062,-0.61,1,0
04125,20111129,-119.65,44.56,0.056,-0.74,1,0,0.062,-0.37,0.732,0,0.077,-0.35,0,0,0.067,-0.9,1,0,0.052,-0.82,1,0,0.059,-0.49,1,0,0.063,-0.57,1,0
04125,20111130,-119.65,44.56,0.056,-0.73,1,0,0.062,-0.35,0.69,0,0.077,-0.34,0,0,0.068,-0.88,1,0,0.052,-0.81,1,0,0.059,-0.5,1,0,0.063,-0.55,1,0
04125,20111201,-119.65,44.56,0.055,-0.73,1,0,0.062,-0.34,0.673,0,0.077,-0.34,0,0,0.068,-0.87,1,0,0.052,-0.8,1,0,0.059,-0.51,1,0,0.063,-0.55,1,0
04125,20111202,-119.65,44.56,0.055,-0.73,1,0,0.061,-0.34,0.679,0,0.077,-0.35,0.03,0,0.067,-0.87,1,0,0.052,-0.79,1,0,0.058,-0.53,1,0,0.063,-0.55,1,0
04125,20111203,-119.65,44.56,0.055,-0.73,1,0,0.061,-0.34,0.69,0,0.076,-0.37,0.107,0,0.067,-0.87,1,0,0.052,-0.79,1,0,0.058,-0.54,1,0,0.062,-0.56,1,0
04125,20111204,-119.65,44.56,0.055,-0.73,1,0,0.06,-0.35,0.732,0,0.076,-0.39,0.22,0,0.067,-0.88,1,0,0.051,-0.79,1,0,0.058,-0.55,1,0,0.062,-0.56,1,0
04125,20111205,-119.65,44.56,,,,,0.059,-0.36,0.821,0,0.075,-0.41,0.321,0,0.067,-0.89,1,0,0.051,-0.79,1,0,,,,,,,,
04125,20111206,-119.65,44.56,,,,,0.058,-0.36,0.935,0,0.075,-0.43,0.44,0,0.066,-0.91,1,0,0.05,-0.78,1,0,,,,,,,,
04125,20111207,-119.65,44.56,,,,,0.058,-0.36,0.976,0,0.074,-0.44,0.56,0,0.066,-0.92,1,0,0.05,-0.75,1,0,,,,,,,,
04125,20111208,-119.65,44.56,,,,,0.057,-0.37,0.994,0,0.073,-0.44,0.679,0,0.065,-0.91,1,0,0.05,-0.73,1,0,,,,,,,,
04125,20111209,-119.65,44.56,,,,,0.057,-0.36,0.946,0,0.073,-0.45,0.78,0,0.065,-0.87,1,0,0.049,-0.68,1,0,,,,,,,,
04125,20111210,-119.65,44.56,,,,,0.057,-0.36,0.905,0,0.073,-0.45,0.845,0,0.065,-0.83,1,0,0.049,-0.63,1,0,,,,,,,,
04125,20111211,-119.65,44.56,,,,,0.057,-0.35,0.866,0,0.073,-0.45,0.875,0,0.065,-0.78,1,0,0.049,-0.58,1,0,,,,,,,,
04125,20111212,-119.65,44.56,,,,,0.057,-0.35,0.854,0,0.073,-0.45,0.917,0,0.065,-0.74,1,0,0.048,-0.51,1,0,,,,,,,,
04125,20111213,-119.65,44.56,,,,,0.057,-0.35,0.861,0,0.073,-0.45,0.94,0,0.066,-0.67,1,0,0.048,-0.46,1,0,,,,,,,,
04125,20111214,-119.65,44.56,,,,,0.057,-0.36,0.861,0,0.073,-0.44,0.964,0,0.066,-0.61,1,0,0.048,-0.41,1,0,,,,,,,,
04125,20111215,-119.65,44.56,,,,,0.057,-0.37,0.861,0,0.073,-0.43,0.988,0,0.066,-0.56,1,0,0.048,-0.37,1,0,,,,,,,,
04125,20111216,-119.65,44.56,,,,,0.057,-0.39,0.911,0,0.073,-0.42,0.976,0,0.066,-0.54,1,0,0.048,-0.34,1,0,,,,,,,,
04125,20111217,-119.65,44.56,,,,,0.057,-0.41,0.956,0,0.073,-0.4,0.899,0,0.066,-0.51,1,0,0.049,-0.32,1,0,,,,,,,,
04125,20111218,-119.65,44.56,,,,,0.057,-0.42,0.994,0,0.073,-0.37,0.833,0,0.066,-0.5,1,0,0.049,-0.3,1,0,,,,,,,,
04125,20111219,-119.65,44.56,,,,,0.057,-0.43,1,0,0.073,-0.35,0.827,0,0.066,-0.47,1,0,0.049,-0.28,1,0,,,,,,,,
04125,20111220,-119.65,44.56,,,,,0.057,-0.44,1,0,0.073,-0.33,0.827,0,0.067,-0.46,1,0,0.049,-0.28,1,0,,,,,,,,
04125,20111221,-119.65,44.56,,,,,0.057,-0.44,1,0,0.073,-0.31,0.744,0,0.066,-0.45,1,0,0.049,-0.27,1,0,,,,,,,,
04125,20111222,-119.65,44.56,,,,,0.057,-0.44,1,0,0.073,-0.28,0.607,0,0.066,-0.45,1,0,0.049,-0.27,1,0,,,,,,,,
04125,20111223,-119.65,44.56,,,,,0.057,-0.44,1,0,0.073,-0.27,0.488,0,0.065,-0.47,1,0,0.049,-0.27,1,0,,,,,,,,
04125,20111224,-119.65,44.56,,,,,,,,,0.073,-0.25,0.423,0,0.065,-0.47,1,0,0.049,-0.27,1,0,,,,,,,,
04125,20111225,-119.65,44.56,,,,,,,,,0.073,-0.24,0.345,0,0.064,-0.46,1,0,0.049,-0.27,1,0,,,,,,,,
04125,20111226,-119.65,44.56,,,,,,,,,0.073,-0.22,0.208,0,0.064,-0.45,1,0,0.048,-0.28,1,0,,,,,,,,
04125,20111227,-119.65,44.56,,,,,,,,,0.072,-0.21,0.065,0,0.064,-0.45,1,0,0.048,-0.28,1,0,,,,,,,,
04125,20111228,-119.65,44.56,,,,,,,,,0.073,-0.2,0.006,0,0.063,-0.44,1,0,0.048,-0.27,1,0,,,,,,,,
04125,20111229,-119.65,44.56,,,,,,,,,0.073,-0.19,0,0,0.064,-0.42,1,0,0.049,-0.26,1,0,,,,,,,,
04125,20111230,-119.65,44.56,,,,,0.058,-0.44,1,0,0.074,-0.19,0,0,0.065,-0.39,1,0,0.049,-0.26,1,0,,,,,,,,
04125,20111231,-119.65,44.56,0.054,-0.98,1,0,0.06,-0.45,1,0,0.074,-0.18,0,0,0.066,-0.38,1,0,0.05,-0.25,1,0,,,,,,,,
04125,20120101,-119.65,44.56,0.059,-0.95,1,0,0.063,-0.44,1,0,0.074,-0.19,0.006,0,0.066,-0.37,1,0,0.05,-0.25,1,0,0.061,-0.71,1,0,0.063,-0.5,1,0
04125,20120102,-119.65,44.56,0.063,-0.92,1,0,0.067,-0.42,0.935,0,0.075,-0.19,0.054,0,0.066,-0.37,1,0,0.05,-0.25,1,0,0.065,-0.68,1,0,0.064,-0.48,1,0
04125,20120103,-119.65,44.56,0.067,-0.89,1,0,0.072,-0.4,0.792,0,0.075,-0.2,0.179,0,0.067,-0.36,1,0,0.051,-0.25,1,0,0.069,-0.64,1,0,0.066,-0.46,1,0
04125,20120104,-119.65,44.56,0.072,-0.88,1,0,0.076,-0.38,0.649,0,0.075,-0.21,0.321,0,0.067,-0.36,1,0,0.051,-0.25,1,0,0.074,-0.61,1,0,0.068,-0.44,1,0
04125,20120105,-119.65,44.56,0.077,-0.86,1,0,0.081,-0.36,0.512,0,0.075,-0.22,0.464,0,0.067,-0.35,1,0,0.051,-0.26,1,0,0.079,-0.57,1,0,0.07,-0.41,1,0
04125,20120106,-119.65,44.56,0.081,-0.84,1,0,0.086,-0.33,0.375,0,0.075,-0.24,0.607,0,0.067,-0.35,1,0,0.051,-0.28,1,0,0.084,-0.53,1,0,0.072,-0.39,0.994,0
04125,20120107,-119.65,44.56,0.082,-0.87,1,0,0.089,-0.3,0.369,0,0.075,-0.27,0.75,0,0.067,-0.34,1,0,0.051,-0.31,1,0,0.086,-0.52,1,0,0.073,-0.38,0.994,0
04125,20120108,-119.65,44.56,0.083,-0.89,1,0,0.091,-0.29,0.339,0,0.075,-0.3,0.887,0,0.067,-0.34,1,0,0.051,-0.36,1,0,0.087,-0.52,1,0,0.073,-0.37,0.994,0
04125,20120109,-119.65,44.56,0.083,-0.93,1,0,0.092,-0.3,0.405,0,0.075,-0.33,0.982,0,0.067,-0.33,1,0,0.051,-0.41,1,0,0.087,-0.53,1,0,0.074,-0.36,0.994,0
04125,20120110,-119.65,44.56,0.083,-0.96,1,0,0.092,-0.31,0.548,0,0.075,-0.35,1,0,0.067,-0.33,1,0,0.051,-0.46,1,0,0.088,-0.54,1,0,0.074,-0.36,0.994,0
04125,20120111,-119.65,44.56,0.084,-0.99,1,0,0.092,-0.31,0.69,0,0.075,-0.38,1,0,0.067,-0.33,1,0,0.051,-0.52,1,0,0.088,-0.55,1,0,0.074,-0.36,0.994,0
04125,20120112,-119.65,44.56,0.083,-1.01,1,0,0.091,-0.33,0.827,0,0.075,-0.41,1,0,0.067,-0.34,1,0,0.051,-0.57,1,0,0.087,-0.55,1,0,0.073,-0.36,0.993,0
04125,20120113,-119.65,44.56,,,,,0.09,-0.33,0.953,0,0.074,-0.44,1,0,0.066,-0.35,1,0,0.05,-0.63,1,0,,,,,,,,
04125,20120114,-119.65,44.56,,,,,,,,,0.074,-0.47,1,0,0.066,-0.38,1,0,0.05,-0.67,1,0,,,,,,,,
04125,20120115,-119.65,44.56,,,,,,,,,0.074,-0.5,1,0,0.065,-0.4,1,0,0.049,-0.7,1,0,,,,,,,,
04125,20120116,-119.65,44.56,,,,,,,,,0.073,-0.54,1,0,0.065,-0.42,1,0,0.049,-0.72,1,0,,,,,,,,
04125,20120117,-119.65,44.56,,,,,,,,,0.073,-0.58,1,0,0.065,-0.45,1,0,0.05,-0.73,1,0,,,,,,,,
04125,20120118,-119.65,44.56,,,,,,,,,0.073,-0.62,1,0,0.064,-0.48,1,0,0.049,-0.74,1,0,,,,,,,,
04125,20120119,-119.65,44.56,,,,,,,,,0.073,-0.65,1,0,0.064,-0.5,1,0,0.049,-0.75,1,0,,,,,,,,
04125,20120120,-119.65,44.56,,,,,,,,,0.073,-0.67,1,0,0.064,-0.53,1,0,0.05,-0.75,1,0,,,,,,,,
04125,20120121,-119.65,44.56,,,,,,,,,0.074,-0.68,1,0,0.065,-0.55,1,0,0.056,-0.71,0.869,0,,,,,,,,
04125,20120122,-119.65,44.56,,,,,,,,,0.077,-0.66,0.946,0,0.066,-0.57,1,0,0.064,-0.64,0.726,0,,,,,,,,
04125,20120123,-119.65,44.56,,,,,,,,,0.083,-0.61,0.804,0,0.068,-0.58,1,0,0.075,-0.55,0.583,0,,,,,,,,
04125,20120124,-119.65,44.56,0.172,-0.11,0.156,0.19,0.196,0.48,0.152,0.788,0.091,-0.56,0.661,0,0.071,-0.58,1,0,0.087,-0.45,0.44,0,0.186,0.32,0.136,0.639,0.126,-0.31,0.177,0
04125,20120125,-119.65,44.56,0.18,0.05,0.119,0.25,0.207,0.57,0.101,0.81,0.102,-0.49,0.518,0.012,0.077,-0.59,0.976,0,0.099,-0.35,0.298,0,0.194,0.4,0.101,0.643,0.133,-0.27,0.137,0.024
04125,20120126,-119.65,44.56,0.196,0.42,0,0.393,0.231,0.76,0,0.952,0.124,-0.35,0.375,0.155,0.096,-0.48,0.833,0.06,0.117,-0.2,0.155,0.143,0.213,0.62,0,0.78,0.153,-0.12,0,0.167
04125,20120127,-119.65,44.56,0.199,0.46,0,0.411,0.236,0.77,0,0.958,0.145,-0.21,0.232,0.298,0.116,-0.37,0.69,0.071,0.134,-0.06,0.012,0.256,0.218,0.61,0,0.78,0.166,-0.04,0,0.31